STARLINK-3103, 49177

Orbit data source: Space-Track

STARLINK-3103, 49177 is a payload satellite owned by SpaceX/Seattle (US) in LEO that was launched on Tue, 14 Sep 2021 UTC via an FALCON 9 launch vehicle from the Air Force Western Test Range (AFWTR). Payload-class satellites include a variety of spacecraft equipped with specific instruments for various scientific and technological missions. These include communications satellites like Starlink; space stations such as the ISS; scientific satellites like the Hubble; Earth observation satellites from companies like Planet Labs, Umbra, and HawkEye 360; GPS; miniature CubeSats for education and research; and military/defense satellites.

Loading next visibility...
Identifier
49177, 2021-082AZ
Orbit
LEO
Country
Flag of USUS
Related business
Manufacturer
SpaceX/Seattle
Mission
Operational Commercial Communications
Bus & Motor
STARLINK, Unknown motor
Mass
297 kg wet, ~275 kg dry
Launch date (UTC)
2021-09-14 (5 years ago)
Launch vehicle
FALCON 9
Launch site
Air Force Western Test Range (AFWTR)
Object type
Payload
Rocket body
Debris
Shape & HBR
Box + 1 Pan, 10.1 m
Radar Cross Section
13.562 m², Large (>1 m²)

Expand to show TLE details & history
Last TLE update: 2 days ago

TLE from 2 days ago
0 STARLINK-3103
1 49177U 21082AZ  26171.46960789  .00000490  00000-0  48872-4 0  9993
2 49177  69.9994 355.3178 0003026 268.3443  91.7370 14.98330360263554
Epoch: 2026-06-20T11:16Z
TLE epoch observation values (Epoch: 2026-06-20T11:16:14.121Z)
Latitude
0.00001°
Longitude
-82.42481°
Altitude
574.543 km
Speed
7.574 km/s
True Right ascension
23h 41m 16s
True Declination
0° 00' 00"
Sunlit
Object was in daylight at epoch
Visualization orbit readout
Latitude
Unknown
Longitude
Unknown
Altitude
Unknown
Speed
Unknown
Apparent Right ascension
Unknown
Apparent Declination
Unknown
Sunlit
N/A
Visualization observer readout
Local Sidereal Time
00:51:10
Azimuth
Unknown
Elevation
Unknown
Doppler factor
Unknown
Orbital elements
Apogee altitude
572.106 km
Perigee altitude
567.901 km
Semi-major axis
6,948.14 km
Eccentricity
0.0003
Inclination
69.9994°
RAAN
355.3178°
Arg. of periapsis
268.3443°
True anomaly
91.77166°
Mean anomaly
91.737°
Eccentric anomaly
91.75433°
Mean motion
3.74749 °/min
Orbital period
96.06 mins
BSTAR
0.000048872
Loading maneuver chart data...
Computing Atmospheric mass density...

Documentation

Showing up to 5 results
|